sat.trackr.live / text

‹ back to catalog

STARLINK-34643

NORAD 64923 · 2025-157V

PAYLOAD ACTIVE UNKNOWN

§ Identity

Operator
Country
US
Launch date
2025-07-26
Launch site
AFETR
Launch vehicle
Mass (kg)
RCS (m²)

Purposes: comms

External: N2YO · Heavens-Above · Gunter

§ Orbital elements

Epoch: 2026-05-24T20:51:31.466880Z

Period
94.10 min
Inclination
53.1597°
Eccentricity
0.0001466
Mean motion
15.30246807 rev/d
Perigee alt
474.1 km
Apogee alt
476.1 km
Semi-major
6,853.2 km
B*
1.3642e-3
RAAN
352.0754°
Arg perigee
119.1771°
Mean anomaly
240.9376°
Rev number
4,778

§ Raw data

STARLINK-346431 64923U 25157V   26144.86911420  .00040322  00000+0  13642-2 0  99902 64923  53.1597 352.0754 0001466 119.1771 240.9376 15.30246807 47789

JSON: /api/v1/satellites/64923 · /tle

For live sub-satellite position, see the globe view (requires WebGL).

§ Visibility from observer

Set your observer location to see the next 7 days of passes ≥ 10°. The values pass through the URL so the page stays shareable.

No JS? Fill the form by hand. The geolocation button needs JavaScript.